User: anonymous   Login
Location: B
(0.0000°N, 0.0000°E)
Time: 11:33:56
(UTC+02:00)
Language:

Cosmos 1025 Rocket - Orbit

View from above orbital plane
View from above orbital plane
View from above satellite
View from above satellite

Ground track
Ground track

The orbit data is extracted from the following two-line orbital elements,

1 10974U 78067B   14296.17263861  .00000813  00000-0  88590-4 0  4435
2 10974 082.4842 005.7485 0016207 312.6655 105.9050 14.86701402963713
Epoch (UTC): 23 October 2014 04:08:35
Eccentricity: 0.0016207
inclination: 82.4842°
perigee height: 597 km
apogee height: 619 km
right ascension of ascending node: 5.7485°
argument of perigee: 312.6655°
revolutions per day: 14.86701402
mean anomaly at epoch: 105.9050°
orbit number at epoch: 96371

The dashed part of the orbit path shows where the satellite is in the earth's shadow,  

DLR